Location: Trebic
(49.2170°N, 15.8830°E)
Time: 21:54:51
(UTC+02:00)

Transit 2A Rocket - Pass Details

Date: 01 August 2019
Orbit: 591 x 913 km, 66.7° (Epoch: 25 August)

Event Time Altitude Azimuth Distance (km) Brightness Sun altitude
Rises 09:56:06 0° 323° (NW) 3,150 7.8 41.4°
Reaches altitude 10° 09:58:34 10° 322° (NW) 2,172 7.1 41.7°
Maximum altitude 10:03:27 75° 238° (WSW) 683 5.4 42.4°
Drops below altitude 10° 10:07:55 10° 153° (SSE) 1,989 7.9 43.1°
Sets 10:10:05 0° 151° (SSE) 2,861 8.5 43.4°
